Weather in Kalitvenskaya

Russia / Rostov Oblast     48°17′27″N   40°31′43″E
temp.,
°C
wind,
m/s
gust,
m/s
humid.,
%
clouds,
%
prec.,
mm/h
press.,
hPa
HPBL,
m
18 may, tue
tue1800:00+17wnw368699 0.0 1007112
03:00+15w3695100 0.1 1007168
06:00+16sw589196 0.2 1007428
09:00+16wsw588787 0.2 1007341
12:00+20sw4570100 0.4 10081018
15:00+20sw5763100 1.9 10091231
18:00+19sw586398 0.1 1009854
21:00+15ssw33800 0.1 100930
19 may, wed
wed1900:00+14sse338194 0.0 100935
03:00+13sse338961 0.0 100942
06:00+15se268895 0.3 1008181
09:00+17sse71079100 0.5 1008738
12:00+15s589383 2.9 1008445
15:00+14sw61081100 5.7 1010787
18:00+16ssw697829 0.3 1010987
21:00+12s410925 0.5 1011289
20 may, thu
thu2000:00+12ssw61394100 0.0 1010547
03:00+13ssw7139297 0.6 1010914
06:00+13ssw7139092 0.3 1011938
09:00+17sw10137140 0.4 10111337
12:00+19wsw9125721 0.1 10121695
15:00+20wsw8105525 0.1 10131858
18:00+20wsw475992 0.0 1013664
21:00+14ssw348160 0.0 101451
21 may, fri
fri2100:00+14sse1177100 0.0 101410
03:00+13ese227668 0.0 101413
06:00+14ese3980100 0.0 1015230
09:00+20ese61063100 0.0 1014578
12:00+23ese81049100 0.0 1013987
15:00+25ese8104799 0.0 10111254
18:00+24ese61158100 0.0 1010520
21:00+19e41374100 0.0 1010257
22 may, sat
sat2200:00+19ese616634 0.0 1009425
03:00+17se513590 0.0 1009337
06:00+16ese412684 0.0 1009347
09:00+21se5757100 0.0 1010540
12:00+23se4557100 0.0 1010730
15:00+24sse3560100 0.0 1011749
18:00+23ne3370100 0.0 101045
21:00+20ene2276100 0.0 101023